Hourly Data Report for October 25, 2014

All times are specified in Local Standard Time (LST). Add 1 hour to adjust for Daylight Saving Time where and when it is observed.

SAINT JOHN A
NEW BRUNSWICK

45°18'58.000" N
65°53'24.000" W
108.80 m
8104901
71609
YSJ

Download Data

Hourly Data (October 2014)
Hourly Data Report for October 25, 2014
Temp Definition
°C
Dew Point Temp Definition
°C
Rel Hum Definition
%
Wind Dir Definition
10's deg

Wind Spd Definition
km/h
Visibility Definition
km
Stn Press Definition
kPa
Hmdx Definition


Wind Chill Definition


Weather Definition


TIME
00:00 Legend Double Dagger 5.8 5.5 98 36 22 8.1 98.74     Drizzle,Fog
01:00 Legend Double Dagger 5.7 5.3 97 35 25 8.1 98.74     Drizzle,Fog
02:00 Legend Double Dagger 5.7 5.4 98 35 25 8.1 98.73     Drizzle,Fog
03:00 Legend Double Dagger 5.7 5.1 96 35 24 9.7 98.72     Fog
04:00 Legend Double Dagger 5.8 5.1 95 35 24 12.9 98.73     LegendNANA
05:00 Legend Double Dagger 5.8 5.1 95 36 23 16.1 98.74     Cloudy
06:00 Legend Double Dagger 5.7 5.0 95 34 21 16.1 98.75     LegendNANA
07:00 Legend Double Dagger 5.7 4.8 94 35 21 16.1 98.81     LegendNANA
08:00 Legend Double Dagger 5.8 5.1 95 33 17 16.1 98.85     Cloudy
09:00 Legend Double Dagger 6.2 5.2 93 34 14 24.1 98.85     LegendNANA
10:00 Legend Double Dagger 6.4 5.4 93 33 18 24.1 98.86     LegendNANA
11:00 Legend Double Dagger 6.7 6.0 95 33 12 9.7 98.85     Rain,Fog
12:00 Legend Double Dagger 7.0 6.0 93 32 15 9.7 98.83     Rain,Fog
13:00 Legend Double Dagger 7.6 6.4 92 35 16 12.9 98.75     LegendNANA
14:00 Legend Double Dagger 7.5 6.1 91 35 19 16.1 98.74     Rain
15:00 Legend Double Dagger 7.4 6.0 91 33 18 12.9 98.77     Rain
16:00 Legend Double Dagger 7.5 6.8 95 33 16 16.1 98.80     Rain
17:00 Legend Double Dagger 7.2 6.6 96 33 10 9.7 98.84     Rain,Fog
18:00 Legend Double Dagger 6.8 6.4 97 34 14 9.7 98.84     Rain,Fog
19:00 Legend Double Dagger 6.6 6.5 99 36 9 8.1 98.82     Drizzle,Fog
20:00 Legend Double Dagger 6.2 5.8 97 35 12 24.1 98.86     Cloudy
21:00 Legend Double Dagger 5.8 5.4 97 36 12 24.1 98.83     LegendNANA
22:00 Legend Double Dagger 5.0 4.6 97 36 3 24.1 98.81     LegendNANA
23:00 Legend Double Dagger 4.2 3.9 98 7 6 24.1 98.71     Mostly Cloudy

Notes on Data Quality.

Legend

  • E = Estimated
  • M = Missing
  • NA = Not Available
  • ‡ = Partner data that is not subject to review by the National Climate Archives
Date modified: